Home   Weather   Newport   Past weeks
Flag for USA

Past Weather in Newport, Oregon, USA — Yesterday and Last 2 Weeks

Now
55 °F

Quite cool.


Feels Like: 55 °F
Forecast: 69 / 52 °F
Wind: No wind

Location: Newport - MADIS Station

Current Time: Aug 26, 2019 at 12:10:50 am

Latest Report: Aug 25, 2019 at 11:23 pm


Visibility: N/A

Pressure: 30.03 "Hg

Humidity: 90%

Dew Point: 52 °F

Location of NewportLocation

Past Weather in Newport — Graph

°F

Newport Temperature Yesterday

Maximum temperature yesterday: 67 °F (at 2:31 pm)
Minimum temperature yesterday: 52 °F (at 7:21 am)
Average temperature yesterday: 60 °F

High & Low Weather Summary for the Past Weeks

 TemperatureHumidityPressure
High73 °F (Aug 12, 4:31 pm)100% (Aug 12, 2:17 am)30.11 "Hg (Aug 12, 2:17 am)
Low48 °F (Aug 24, 4:34 am)56% (Aug 12, 4:31 pm)29.76 "Hg (Aug 18, 5:23 am)
Average60 °F87%29.94 "Hg
* Reported Aug 10 10:18 pm — Aug 25 10:47 pm, Newport. Weather by CustomWeather, © 2019

Note: Actual official high and low records may vary slightly from our data, if they occured in-between our weather recording intervals... More about our weather records

Advertising

Newport Weather History for the Previous 24 Hours

Scroll right to see more
 ConditionsComfort  
Time TempWeatherWind HumidityBarometerVisibility
10:47 pm
Sun, Aug 25
55 °FQuite cool.No wind90%30.03 "HgN/A
10:11 pm56 °FCool.No wind87%30.03 "HgN/A
9:41 pm58 °FCool.No wind86%30.03 "HgN/A
9:25 pm58 °FCool.5 mph86%30.02 "HgN/A
9:15 pm58 °FCool.3 mph86%30.02 "HgN/A
8:44 pm58 °FCool.No wind85%30.01 "HgN/A
8:34 pm58 °FCool.No wind84%30.01 "HgN/A
6:11 pm64 °FCool.10 mph74%30.02 "HgN/A
5:30 pm64 °FCool.10 mph73%30.03 "HgN/A
4:54 pm65 °FCool.9 mph71%30.03 "HgN/A
4:49 pm65 °FCool.12 mph71%30.04 "HgN/A
4:18 pm67 °FCool.8 mph69%30.04 "HgN/A
3:42 pm67 °FCool.10 mph70%30.05 "HgN/A
3:27 pm66 °FCool.11 mph71%30.05 "HgN/A
3:07 pm66 °FCool.12 mph72%30.05 "HgN/A
2:31 pm67 °FCool.7 mph70%30.05 "HgN/A
2:21 pm66 °FCool.9 mph69%30.06 "HgN/A
1:55 pm66 °FCool.11 mph69%30.06 "HgN/A
1:14 pm66 °FCool.9 mph68%30.05 "HgN/A
12:48 pm66 °FCool.7 mph67%30.06 "HgN/A
12:23 pm65 °FCool.10 mph67%30.06 "HgN/A
11:57 am66 °FCool.10 mph65%30.05 "HgN/A
10:46 am64 °FCool.4 mph70%30.05 "HgN/A
10:25 am63 °FCool.6 mph72%30.05 "HgN/A
10:10 am63 °FCool.5 mph72%30.04 "HgN/A
9:49 am63 °FCool.3 mph73%30.05 "HgN/A
9:34 am63 °FCool.5 mph74%30.04 "HgN/A
9:14 am63 °FCool.No wind77%30.05 "HgN/A
8:48 am62 °FCool.1 mph88%30.04 "HgN/A
8:12 am57 °FCool.No wind100%30.03 "HgN/A
7:47 am53 °FQuite cool.No wind100%30.03 "HgN/A
7:21 am52 °FQuite cool.No wind100%30.02 "HgN/A
6:25 am53 °FQuite cool.No wind100%30.00 "HgN/A
6:09 am54 °FQuite cool.No wind100%29.99 "HgN/A
5:34 am53 °FQuite cool.No wind100%29.99 "HgN/A
4:47 am53 °FQuite cool.No wind100%29.98 "HgN/A
4:32 am53 °FQuite cool.No wind99%29.98 "HgN/A
4:12 am54 °FQuite cool.No wind99%29.97 "HgN/A
3:46 am53 °FQuite cool.No wind99%29.97 "HgN/A
3:26 am54 °FQuite cool.No wind99%29.97 "HgN/A
2:34 am56 °FCool.No wind97%29.96 "HgN/A
2:14 am56 °FCool.No wind97%29.96 "HgN/A
1:23 am56 °FCool.No wind96%29.95 "HgN/A
12:32 am56 °FCool.No wind96%29.93 "HgN/A
12:16 am56 °FCool.4 mph96%29.94 "HgN/A
Weather by CustomWeather, © 2019

See weather overview